Wind_Speed
36 36 37 39 40 39 39 40 40 39 40 41 43 44 45 45 45 46 45 45 46 47 47 48 49 50 51 51 51 52 53 54 54 54 54 54 54 54 55 55 55 55 56
37 38 39 40 40 39 39 40 40 41 42 43 44 44 45 45 45 45 45 46 47 46 47 48 48 49 50 50 50 51 50 50 49 48 48 48 48 48 48 49 50 50 50
38 38 39 39 39 39 40 41 41 42 44 45 45 45 45 45 45 44 45 45 46 46 46 47 48 48 48 48 48 47 45 44 44 43 43 43 43 43 42 43 43 44 44
38 38 38 39 40 40 40 42 43 43 44 45 44 43 43 43 43 43 43 44 44 45 45 45 45 45 45 44 43 42 41 40 40 40 40 39 39 38 38 37 37 38 37
37 37 38 38 39 40 41 41 42 42 41 41 41 40 40 40 41 42 42 43 43 43 43 42 42 41 41 40 39 38 38 37 37 36 36 35 34 33 33 33 32 32 31
36 36 37 37 38 38 38 38 37 37 37 37 37 38 38 38 39 40 40 40 40 39 39 38 38 37 36 35 34 34 33 32 31 31 30 29 28 27 27 27 27 26 26
34 34 34 34 34 34 34 34 33 34 34 35 35 36 36 37 37 37 36 36 35 35 35 34 33 32 30 29 29 27 26 25 25 24 24 23 24 24 24 24 24 24 23
31 31 31 31 31 31 30 30 31 31 32 32 33 33 33 33 33 33 32 32 31 30 29 28 27 26 25 25 23 22 21 22 22 21 21 21 22 22 22 22 22 22 22
27 27 27 27 28 28 28 28 29 29 29 29 30 31 31 30 30 29 28 27 26 25 24 23 22 21 21 20 19 19 20 20 20 19 20 21 21 21 22 22 21 21 20
24 25 25 26 26 26 27 27 27 28 28 28 28 28 27 26 26 25 23 22 21 20 19 19 18 18 18 18 18 18 18 18 18 19 19 20 20 20 21 21 21 20 20
23 23 24 24 25 25 25 26 26 26 26 25 25 24 23 23 22 20 19 18 17 16 16 16 16 16 16 16 17 17 17 17 18 18 19 19 19 20 20 20 21 20 21
21 21 22 22 23 23 23 23 22 22 23 22 22 21 20 19 18 16 15 15 14 14 14 14 14 14 15 16 16 17 17 17 17 17 18 18 19 19 19 20 20 21 21
19 20 20 20 20 20 20 20 20 20 20 19 19 18 17 15 14 13 13 12 12 12 12 12 13 14 15 15 16 16 17 17 17 17 17 18 18 18 18 19 20 20 20
18 18 17 17 17 17 18 18 18 18 17 16 15 14 13 12 11 10 10 10 10 11 11 12 13 14 14 15 16 16 17 17 16 16 16 17 17 18 18 18 18 18 18
15 15 16 15 15 16 16 16 15 15 14 13 12 11 10 10 9 9 9 9 10 10 11 12 14 15 15 16 15 15 16 16 16 15 15 15 16 17 17 16 16 16 16
15 14 14 14 14 14 13 13 12 12 11 11 10 9 9 8 8 8 8 8 9 10 11 12 13 14 15 15 15 15 16 16 16 15 15 15 15 15 16 15 15 15 15
13 13 13 12 12 12 12 11 10 10 10 9 9 8 8 7 7 7 7 8 9 10 11 13 13 14 14 14 15 15 15 15 15 15 15 14 14 14 14 14 14 14 14
12 12 12 11 11 10 10 9 8 8 8 8 8 7 7 6 6 7 7 9 10 11 12 12 13 13 14 14 15 15 15 15 15 15 15 14 13 13 12 12 13 13 13
11 10 10 10 9 9 8 8 7 7 8 7 7 6 6 6 6 7 8 9 10 11 11 12 12 13 14 14 15 15 15 15 15 14 14 13 13 12 11 11 12 12 12
10 10 10 9 9 8 8 8 7 7 7 7 6 6 6 6 7 7 8 9 10 10 11 11 12 13 14 14 15 15 15 15 14 14 13 13 12 11 11 11 11 11 12
10 9 9 9 8 8 8 7 7 6 6 6 6 5 5 6 6 7 8 9 10 10 11 11 12 13 14 14 14 15 15 15 14 13 12 12 12 11 11 11 11 11 11
11 10 10 9 9 9 8 8 7 6 5 5 5 4 4 5 6 7 8 8 9 10 11 11 12 13 13 14 14 14 14 14 13 13 12 11 11 11 11 11 11 11 11
12 11 10 10 10 10 9 8 7 6 5 5 5 4 5 5 6 7 8 8 9 10 11 12 12 13 13 13 14 13 13 13 13 12 11 11 11 11 11 11 11 10 11
12 12 12 11 11 10 10 9 8 7 6 5 5 5 5 5 6 7 8 9 10 10 11 12 12 12 13 13 13 13 13 12 12 11 11 10 11 10 10 11 11 11 11
13 13 13 13 12 12 11 10 9 8 7 6 6 6 6 6 7 8 8 9 10 11 11 12 12 12 13 13 13 13 12 12 12 12 11 11 11 11 11 11 11 12 12
15 14 14 14 14 13 12 11 10 9 8 7 7 6 6 7 8 8 9 9 10 11 11 12 12 12 13 13 13 13 13 13 13 12 12 12 11 11 12 12 12 13 13
Wind_Direction
270 274 277 280 282 284 285 286 287 286 287 287 287 289 289 289 291 292 292 293 293 293 294 294 294 295 294 293 292 292 291 291 290 289 289 289 288 288 287 286 286 285 285
271 274 276 278 279 281 282 283 283 283 285 286 287 288 289 290 290 290 292 294 293 294 294 294 295 295 295 294 294 293 293 293 292 292 292 292 292 291 291 289 289 289 289
273 274 275 276 277 279 280 281 282 283 284 285 287 288 288 289 292 293 294 295 295 296 296 296 296 297 296 296 296 296 296 297 297 296 295 295 296 296 295 294 293 293 294
273 274 276 276 278 280 281 282 282 283 285 285 286 287 289 291 293 295 296 296 297 297 297 298 298 298 298 298 298 298 299 299 299 298 298 298 299 299 299 299 298 298 297
272 273 276 276 278 279 280 281 282 284 285 285 287 289 292 293 295 296 297 298 298 298 299 299 299 300 300 301 300 301 301 301 301 301 301 302 302 302 302 302 302 302 302
272 272 273 275 277 279 280 281 283 284 286 288 291 292 293 294 296 298 299 299 300 300 301 301 302 302 303 303 303 304 304 305 306 307 307 308 309 311 312 312 311 310 310
272 272 274 276 278 279 281 283 285 287 289 291 291 293 294 297 298 299 301 302 302 302 303 304 305 306 306 308 309 310 312 314 315 316 317 318 320 321 321 322 321 320 318
277 277 278 280 283 284 285 286 288 289 291 292 293 295 296 297 299 300 302 303 304 306 307 309 311 312 313 315 317 319 321 322 323 324 326 328 330 332 332 332 331 329 327
283 284 284 286 289 289 289 289 291 291 292 294 295 296 298 298 299 301 304 306 308 310 314 316 317 318 321 323 325 327 329 330 330 332 335 338 340 341 341 341 340 339 337
287 286 286 287 288 289 290 291 292 292 292 293 294 296 297 299 300 303 305 307 310 314 318 321 322 325 328 330 332 335 337 339 341 344 345 346 345 344 344 345 346 346 346
289 288 288 288 290 291 292 292 292 293 293 295 295 296 298 299 301 304 306 309 314 318 322 324 327 328 332 334 336 339 342 344 347 349 350 349 348 347 347 347 348 349 349
291 292 291 292 294 294 293 293 293 294 295 296 297 298 298 300 301 304 307 311 315 319 324 328 331 332 334 337 340 343 345 347 349 350 350 350 350 350 349 350 351 352 353
296 296 295 296 297 296 296 297 297 297 297 297 297 298 299 300 302 305 308 313 318 322 326 329 331 333 336 339 341 343 345 347 348 348 349 350 350 351 350 350 352 353 355
299 300 299 300 302 304 303 301 300 298 298 298 298 298 298 300 302 305 310 314 319 323 327 330 332 335 337 338 339 340 341 343 344 344 345 346 347 348 349 349 352 355 358
305 304 304 304 305 305 305 305 305 302 301 299 298 297 299 301 304 308 312 315 319 325 329 332 334 335 335 336 337 338 338 338 339 341 341 342 344 346 348 349 351 354 357
307 307 307 307 307 308 309 309 310 309 306 304 300 299 302 304 306 310 314 318 321 324 328 332 333 333 334 335 337 338 338 337 338 339 340 340 342 345 348 350 352 355 357
311 312 312 311 311 311 310 309 310 310 308 307 305 302 304 307 311 315 319 322 324 327 330 331 332 334 335 336 337 339 340 340 340 340 341 341 343 345 348 351 354 356 359
320 317 316 318 318 316 315 312 312 313 313 311 311 311 311 311 315 317 321 325 329 331 332 332 333 336 338 338 338 340 342 342 341 342 343 343 344 347 349 351 354 358 1
333 330 328 328 328 325 324 323 319 315 312 313 313 315 314 315 318 320 324 330 334 335 336 337 339 341 342 342 342 342 343 343 344 346 347 348 349 351 351 351 354 358 2
343 340 338 336 334 332 328 326 324 320 316 315 314 315 315 318 323 327 332 337 341 342 343 344 344 344 345 344 344 345 345 346 348 349 350 352 355 356 355 356 358 0 3
355 353 350 348 345 343 340 332 325 320 320 321 321 322 325 327 331 335 339 342 344 346 347 348 347 347 347 347 347 347 349 350 352 354 357 359 1 2 2 3 5 7 10
5 4 2 360 357 353 350 346 340 332 326 328 333 334 337 338 339 341 343 345 347 349 350 351 350 350 351 351 351 352 354 356 358 359 3 6 8 9 9 10 12 15 17
12 12 11 9 6 3 1 359 357 353 348 346 347 346 347 349 350 350 351 352 353 354 355 354 354 355 356 357 357 358 360 2 4 7 9 13 15 14 14 17 20 24 25
20 21 20 17 15 13 11 10 10 9 7 7 7 6 5 4 2 359 358 360 1 360 359 360 1 1 1 2 3 5 6 8 11 13 15 18 20 21 22 26 29 31 32
29 29 26 24 21 19 17 16 18 19 19 19 17 15 12 10 10 8 8 8 7 7 7 8 7 6 7 9 11 13 15 16 18 21 23 25 28 30 33 36 38 39 41
33 31 29 28 28 27 25 24 25 26 26 25 24 24 24 23 19 17 17 17 17 15 15 15 14 14 16 18 20 22 23 25 26 29 33 36 39 42 45 46 47 48 48
Height
5797 5797 5797 5796 5795 5794 5792 5790 5789 5787 5786 5784 5782 5780 5778 5776 5773 5771 5768 5765 5761 5758 5754 5750 5745 5741 5736 5731 5725 5720 5714 5709 5704 5698 5691 5685 5680 5675 5670 5665 5660 5656 5652
5788 5788 5788 5787 5786 5785 5783 5781 5780 5778 5777 5774 5772 5770 5768 5765 5762 5760 5757 5754 5750 5746 5742 5738 5733 5728 5723 5717 5711 5705 5700 5694 5689 5684 5677 5672 5666 5661 5656 5651 5646 5642 5638
5779 5779 5778 5777 5776 5775 5774 5772 5770 5768 5767 5764 5762 5760 5758 5755 5752 5749 5746 5743 5739 5734 5730 5725 5720 5715 5710 5704 5698 5692 5686 5681 5676 5671 5665 5660 5654 5649 5644 5639 5634 5630 5625
5770 5769 5768 5767 5766 5765 5763 5762 5760 5759 5757 5754 5752 5750 5747 5744 5742 5739 5735 5732 5727 5723 5718 5713 5708 5702 5697 5691 5686 5680 5675 5669 5664 5659 5655 5649 5644 5639 5634 5629 5625 5620 5616
5760 5760 5759 5758 5756 5755 5754 5752 5750 5748 5746 5744 5742 5740 5737 5734 5731 5728 5725 5721 5717 5712 5707 5702 5696 5691 5686 5680 5675 5670 5664 5659 5654 5649 5645 5640 5635 5630 5625 5621 5617 5612 5608
5751 5750 5749 5748 5747 5746 5744 5742 5740 5739 5737 5735 5732 5730 5728 5724 5721 5718 5714 5711 5706 5701 5696 5691 5686 5681 5676 5671 5666 5660 5655 5651 5646 5641 5636 5632 5627 5623 5618 5614 5610 5606 5602
5742 5741 5740 5739 5738 5736 5735 5733 5731 5730 5728 5726 5723 5721 5718 5715 5712 5708 5705 5701 5696 5692 5687 5682 5677 5673 5668 5663 5658 5653 5648 5644 5639 5635 5631 5626 5622 5618 5613 5609 5604 5600 5597
5734 5733 5731 5730 5729 5728 5726 5724 5723 5721 5719 5717 5714 5712 5709 5706 5703 5700 5696 5692 5688 5684 5679 5674 5670 5666 5662 5657 5652 5648 5643 5639 5635 5631 5627 5622 5618 5614 5609 5605 5601 5597 5593
5726 5725 5724 5723 5721 5720 5718 5716 5714 5712 5711 5708 5706 5703 5701 5698 5695 5692 5689 5685 5681 5677 5673 5669 5665 5661 5657 5653 5649 5644 5640 5636 5632 5628 5624 5620 5615 5611 5607 5603 5598 5594 5590
5720 5718 5717 5716 5714 5712 5711 5709 5707 5705 5702 5700 5698 5695 5693 5690 5688 5685 5682 5679 5676 5672 5669 5665 5661 5658 5654 5650 5646 5642 5638 5634 5630 5626 5622 5618 5613 5609 5605 5601 5597 5592 5588
5714 5712 5710 5709 5707 5705 5703 5701 5699 5697 5695 5693 5690 5688 5686 5684 5681 5679 5676 5674 5671 5668 5665 5662 5659 5655 5652 5648 5644 5640 5636 5632 5628 5624 5620 5617 5612 5608 5604 5599 5595 5591 5587
5707 5706 5704 5702 5700 5698 5696 5694 5692 5690 5688 5686 5684 5682 5680 5678 5676 5674 5672 5670 5667 5665 5662 5660 5657 5654 5650 5647 5643 5639 5635 5631 5627 5623 5620 5616 5612 5608 5603 5599 5595 5591 5586
5701 5700 5698 5696 5694 5692 5690 5688 5685 5684 5682 5681 5679 5677 5675 5674 5672 5670 5668 5666 5664 5662 5660 5658 5655 5652 5648 5645 5641 5637 5634 5630 5626 5623 5619 5615 5611 5607 5603 5599 5595 5591 5586
5696 5694 5692 5690 5688 5686 5684 5682 5680 5679 5677 5676 5674 5673 5672 5670 5669 5667 5665 5664 5662 5660 5658 5656 5653 5650 5647 5643 5640 5636 5632 5629 5625 5621 5618 5614 5610 5606 5603 5599 5595 5591 5587
5691 5689 5688 5686 5684 5682 5680 5678 5676 5674 5673 5672 5670 5669 5668 5667 5666 5665 5663 5662 5660 5658 5656 5654 5651 5648 5645 5642 5638 5635 5631 5628 5624 5620 5617 5613 5610 5606 5602 5598 5595 5591 5587
5687 5685 5683 5681 5680 5678 5676 5674 5672 5671 5669 5668 5667 5667 5666 5665 5664 5662 5661 5660 5658 5657 5654 5652 5649 5646 5643 5640 5637 5633 5630 5626 5623 5619 5615 5612 5609 5605 5601 5598 5595 5591 5587
5683 5681 5679 5678 5676 5675 5673 5671 5670 5669 5667 5666 5665 5664 5664 5663 5662 5661 5660 5658 5657 5655 5653 5650 5648 5645 5642 5639 5635 5632 5629 5625 5621 5618 5614 5611 5608 5604 5601 5598 5595 5591 5588
5680 5678 5676 5675 5673 5672 5670 5669 5668 5667 5665 5664 5664 5663 5662 5661 5660 5659 5658 5657 5655 5653 5651 5649 5646 5643 5640 5637 5634 5631 5627 5624 5620 5617 5613 5610 5607 5603 5600 5597 5594 5591 5588
5678 5676 5674 5672 5671 5670 5668 5667 5666 5665 5664 5663 5662 5661 5660 5660 5659 5658 5657 5656 5654 5652 5650 5647 5645 5642 5639 5636 5633 5629 5626 5622 5619 5616 5612 5609 5606 5603 5600 5597 5595 5592 5589
5676 5674 5673 5671 5670 5668 5667 5665 5664 5663 5662 5661 5661 5660 5659 5658 5658 5657 5655 5654 5652 5651 5648 5646 5644 5641 5638 5635 5632 5628 5625 5621 5618 5615 5612 5609 5605 5603 5600 5597 5595 5592 5589
5676 5674 5672 5670 5669 5667 5665 5664 5663 5662 5661 5660 5659 5659 5658 5657 5657 5656 5654 5653 5651 5650 5648 5645 5643 5640 5637 5634 5631 5627 5624 5620 5617 5614 5611 5608 5605 5603 5600 5598 5595 5593 5590
5676 5674 5672 5670 5668 5666 5665 5663 5662 5661 5660 5659 5659 5658 5657 5657 5656 5655 5654 5652 5651 5649 5647 5645 5642 5639 5636 5633 5630 5627 5623 5620 5617 5614 5611 5608 5606 5603 5601 5598 5596 5593 5591
5676 5674 5672 5670 5669 5667 5665 5663 5662 5661 5660 5659 5658 5658 5657 5656 5656 5655 5654 5652 5651 5649 5646 5644 5642 5639 5636 5633 5629 5626 5623 5620 5617 5614 5611 5609 5607 5604 5602 5599 5597 5595 5593
5678 5675 5673 5671 5669 5668 5666 5664 5662 5661 5660 5659 5659 5658 5657 5657 5656 5655 5654 5652 5650 5649 5646 5644 5641 5639 5636 5633 5630 5627 5623 5620 5618 5615 5612 5610 5608 5606 5603 5601 5599 5597 5594
5680 5677 5675 5673 5671 5669 5667 5665 5664 5662 5661 5661 5660 5659 5658 5658 5657 5655 5654 5653 5651 5649 5647 5644 5642 5639 5636 5633 5630 5627 5624 5622 5619 5616 5614 5612 5609 5607 5605 5603 5601 5599 5597
5682 5680 5678 5676 5673 5671 5669 5667 5665 5664 5663 5662 5661 5660 5659 5659 5658 5656 5655 5653 5652 5650 5647 5645 5642 5640 5637 5634 5631 5629 5626 5623 5621 5618 5616 5614 5612 5610 5608 5606 5604 5602 5600